Flag for Mozambique Weather past 2 weeks in Beira, Mozambique

Now
73 °F

Broken clouds.


Feels Like: 72 °F
Forecast: 74 / 81 °F
Wind: 8 mph from Southeast

Location: Beira Airport

Current Time: Oct 21, 2014 at 8:21:46 AM

Latest Report: Oct 21, 2014 at 8:00 AM


Visibility: N/A

Pressure: 30.09 "Hg

Humidity: 89%

Dew point: 70 °F

Location of BeiraLocation

Historic Weather in Beira — Graph

°F

Beira temperature yesterday

Maximum temperature yesterday: 82 °F (at 1:00 PM)
Minimum temperature yesterday: 66 °F (at 4:00 AM)
Average temperature yesterday: 77 °F

Past Weeks' High & Low Weather Summary

 TemperatureHumidityPressure
High95 °F (Oct 17, 1:00 PM)94% (Oct 7, 5:00 AM)30.24 "Hg (Oct 7, 5:00 AM)
Low63 °F (Oct 7, 5:00 AM)37% (Oct 9, 11:00 AM)29.59 "Hg (Oct 17, 1:00 PM)
Average77 °F77%29.93 "Hg
* Reported Oct 6 7:00 AM — Oct 21 7:00 AM, Beira, Weather by CustomWeather, © 2014

Note: Actual official high and low records may vary slightly from our data, if they occured in-between our weather recording intervals... More about our weather records

Advertising

Beira weather history for previous 24 hours

 ConditionsComfort  
Time TempWeatherWind HumidityBarometerVisibility
7:00 AM
Oct 21
70 °FPartly sunny.7 mph83%30.07 "HgN/A
6:00 AM70 °FPartly sunny.5 mph83%30.07 "HgN/A
5:00 AM72 °FPassing clouds.6 mph83%30.04 "HgN/A
12:00 AM73 °FPassing clouds.12 mph69%30.01 "HgN/A
11:00 PM
Oct 20
73 °FPassing clouds.12 mph69%30.04 "HgN/A
10:00 PM75 °FPassing clouds.12 mph65%30.01 "HgN/A
9:00 PM75 °FPassing clouds.9 mph65%30.01 "HgN/A
7:00 PM77 °FClear.9 mph57%29.98 "Hg10 mi
6:00 PM81 °FClear.13 mph48%29.95 "Hg10 mi
5:00 PM81 °FSunny.15 mph48%29.95 "Hg10 mi
4:00 PM81 °FSunny.16 mph51%29.95 "Hg10 mi
2:00 PM82 °FPassing clouds.15 mph51%29.95 "HgN/A
1:00 PM82 °FPassing clouds.14 mph51%29.98 "HgN/A
12:00 PM81 °FPassing clouds.10 mph66%29.98 "HgN/A
11:00 AM81 °FScattered clouds.9 mph66%30.04 "HgN/A
10:00 AM81 °FScattered clouds.9 mph66%30.04 "HgN/A
9:00 AM79 °FScattered clouds.9 mph65%30.04 "HgN/A
8:00 AM75 °FPassing clouds.3 mph78%30.04 "HgN/A
Weather by CustomWeather, © 2014

See weather overviewHow to use our weather pages